Location: Kimberly
(42.5380°N, 114.3640°W)
Time: 14:49:46
(UTC-07:00)

N. Korean satellite - Visible Passes

Search period start: 23 January 2019 00:00
Search period end: 02 February 2019 00:00
Orbit: 458 x 509 km, 97.2° (Epoch: 22 January)

Date Brightness Start Highest point End Pass type
(mag) Time Alt. Az. Time Alt. Az. Time Alt. Az.
23 Jan 9.4 06:07:21 10° NE 06:10:13 21° E 06:13:02 10° SE visible
23 Jan 7.3 18:15:59 10° S 18:19:37 60° W 18:23:18 10° NNW visible
24 Jan 10.3 05:44:26 10° ENE 05:45:20 11° E 05:46:14 10° ESE visible
24 Jan 6.8 07:15:30 10° N 07:19:04 49° WNW 07:22:35 10° SSW visible
25 Jan 6.7 06:50:46 10° NNE 06:54:27 78° ESE 06:58:03 10° S visible
25 Jan 9.9 19:01:23 10° SW 19:03:53 17° W 19:06:25 10° NW visible
26 Jan 8.3 06:26:19 10° NNE 06:29:44 36° E 06:33:04 10° SSE visible
26 Jan 8.6 18:35:43 10° SSW 18:39:05 33° W 18:42:30 10° NNW visible
27 Jan 9.6 06:02:19 10° NE 06:04:55 18° E 06:07:28 10° SE visible
27 Jan 7.0 18:10:40 10° S 18:14:21 71° W 18:18:05 10° NNW visible
28 Jan 6.6 07:10:13 10° N 07:13:49 57° WNW 07:17:20 10° SSW visible
28 Jan 10.5 19:23:11 10° W 19:23:28 10° W 19:23:47 10° W visible
29 Jan 7.0 06:45:32 10° NNE 06:49:10 66° E 06:52:42 10° S visible
29 Jan 9.7 18:55:48 10° SW 18:58:35 20° W 19:01:23 10° NW visible
30 Jan 8.6 06:21:09 10° NNE 06:24:25 31° E 06:27:36 10° SSE visible
30 Jan 8.4 18:30:18 10° SSW 18:33:47 38° W 18:37:18 10° NNW visible
31 Jan 9.8 05:57:18 10° NE 05:59:34 16° E 06:01:48 10° SE visible
01 Feb 6.5 07:04:54 10° N 07:08:31 67° WNW 07:12:02 10° SSW visible
01 Feb 10.3 19:16:43 10° WSW 19:18:07 12° W 19:19:32 10° WNW visible
